KJ7BRE-1 Weather Reports


Display with metric or nautical units.
time (UTC)temp
F
wind
direction
speed
MPH
gust
MPH
rain 1hr
in
rain 24hr
in
rain mn
in
humidity
%
barometer
mb
20260507085316 55 90 0.0 2.0 0.00 0.00 0.00 69 1015.2
20260507084814 54 144 1.0 1.0 0.00 0.00 0.00 69 1015.6
20260507084313 55 180 1.0 3.0 0.00 0.00 0.00 70 1015.6
20260507083812 55 99 1.0 3.0 0.00 0.00 0.00 69 1015.6
20260507083310 55 225 0.0 1.0 0.00 0.00 0.00 70 1015.6
20260507082809 55 72 1.0 1.0 0.00 0.00 0.00 70 1015.6
20260507082308 55 108 1.0 5.0 0.00 0.00 0.00 69 1015.6
20260507081807 55 243 1.0 0.0 0.00 0.00 0.00 71 1015.6
20260507081306 55 198 2.0 2.0 0.00 0.00 0.00 70 1015.6
20260507080805 55 216 0.0 3.0 0.00 0.00 0.00 70 1015.6
20260507080303 55 342 0.0 0.0 0.00 0.00 0.00 72 1015.6
20260507075802 55 36 0.0 2.0 0.00 0.00 0.00 72 1015.6
20260507075301 55 171 0.0 0.0 0.00 0.00 0.00 73 1015.6
20260507074759 55 9 1.0 1.0 0.00 0.00 0.00 72 1015.6
20260507074258 55 315 0.0 0.0 0.00 0.00 0.00 73 1015.6
20260507073757 55 27 0.0 3.0 0.00 0.00 0.00 72 1015.6
20260507073256 55 135 1.0 1.0 0.00 0.00 0.00 72 1015.6
20260507072755 55 81 1.0 1.0 0.00 0.00 0.00 72 1015.6
20260507072254 55 243 0.0 0.0 0.00 0.00 0.00 73 1015.6
20260507071752 55 27 0.0 2.0 0.00 0.00 0.00 72 1015.2
20260507071251 55 315 1.0 1.0 0.00 0.00 0.00 72 1015.2
20260507070750 55 54 0.0 0.0 0.00 0.00 0.00 73 1015.2
20260507070249 55 279 1.0 2.0 0.00 0.00 0.00 72 1015.2
20260507065747 55 279 1.0 2.0 0.00 0.00 0.00 72 1015.2
20260507065246 56 333 0.0 2.0 0.00 0.00 0.00 72 1015.6
20260507064745 55 171 0.0 2.0 0.00 0.00 0.00 73 1015.2
20260507064244 55 288 1.0 4.0 0.00 0.00 0.00 72 1015.2
20260507063743 55 90 2.0 2.0 0.00 0.00 0.00 72 1015.2
20260507063241 55 108 2.0 3.0 0.00 0.00 0.00 72 1015.2
20260507062740 56 324 1.0 2.0 0.00 0.00 0.00 74 1015.6
20260507062239 55 279 1.0 0.0 0.00 0.00 0.00 73 1015.6
20260507061738 56 243 1.0 5.0 0.00 0.00 0.00 73 1015.2
20260507061236 56 288 2.0 2.0 0.00 0.00 0.00 73 1015.6
20260507060735 56 81 2.0 1.0 0.00 0.00 0.00 74 1015.6
20260507060234 56 81 2.0 5.0 0.00 0.00 0.00 74 1015.6
20260507055733 56 108 1.0 2.0 0.00 0.00 0.00 74 1015.2
20260507055232 56 270 1.0 4.0 0.00 0.00 0.00 74 1015.6
20260507054730 56 63 2.0 3.0 0.00 0.00 0.00 74 1015.2
20260507054229 56 144 1.0 1.0 0.00 0.00 0.00 74 1015.2
20260507053728 56 135 0.0 1.0 0.00 0.00 0.00 74 1015.6
20260507053227 56 297 2.0 3.0 0.00 0.00 0.00 73 1015.6
20260507052726 56 144 3.0 4.0 0.00 0.00 0.00 73 1015.6
20260507052224 56 261 2.0 6.0 0.00 0.00 0.00 73 1015.6
20260507051723 56 207 2.0 3.0 0.00 0.00 0.00 73 1015.2
20260507051222 56 252 2.0 1.0 0.00 0.00 0.00 73 1015.6
20260507050721 56 270 3.0 3.0 0.00 0.00 0.00 73 1015.2
20260507050219 57 72 2.0 1.0 0.00 0.00 0.00 73 1015.2
20260507045718 57 297 2.0 4.0 0.00 0.00 0.00 73 1015.2
20260507045217 57 63 2.0 6.0 0.00 0.00 0.00 72 1015.6
20260507044716 57 27 2.0 2.0 0.00 0.00 0.00 72 1015.6
20260507044215 57 144 1.0 6.0 0.00 0.00 0.00 72 1015.6
20260507043713 57 198 2.0 7.0 0.00 0.00 0.00 72 1015.2
20260507043212 57 18 1.0 4.0 0.00 0.00 0.00 72 1015.2
20260507042711 57 225 2.0 3.0 0.00 0.00 0.00 72 1015.2
20260507042210 58 9 3.0 4.0 0.00 0.00 0.00 71 1015.2
20260507041708 58 162 2.0 4.0 0.00 0.00 0.00 71 1015.2
20260507041207 58 243 1.0 1.0 0.00 0.00 0.00 72 1015.2
20260507040706 58 225 3.0 3.0 0.00 0.00 0.00 71 1014.9
20260507040205 58 306 2.0 3.0 0.00 0.00 0.00 71 1014.9
20260507035703 58 342 2.0 4.0 0.00 0.00 0.00 71 1014.9
20260507035202 59 90 3.0 6.0 0.00 0.00 0.00 71 1014.6
20260507034701 59 0 1.0 3.0 0.00 0.00 0.00 71 1014.6
20260507033659 59 27 1.0 2.0 0.00 0.00 0.00 71 1014.6
20260507033157 59 18 2.0 2.0 0.00 0.00 0.00 71 1014.6
20260507032656 60 0 0.0 2.0 0.00 0.00 0.00 71 1014.6
20260507032155 60 198 2.0 1.0 0.00 0.00 0.00 71 1014.2
20260507031654 60 252 1.0 2.0 0.00 0.00 0.00 71 1014.2
20260507031152 60 9 1.0 3.0 0.00 0.00 0.00 72 1013.9
20260507030651 60 162 1.0 1.0 0.00 0.00 0.00 72 1014.2
20260507030150 60 108 1.0 2.0 0.00 0.00 0.00 72 1014.2
20260507025649 60 126 1.0 2.0 0.00 0.00 0.00 72 1013.9
20260507025148 60 54 0.0 1.0 0.00 0.00 0.00 71 1013.9
20260507024646 60 18 0.0 1.0 0.00 0.00 0.00 70 1013.9
20260507024145 61 324 1.0 3.0 0.00 0.00 0.00 70 1013.5
20260507023644 61 351 1.0 2.0 0.00 0.00 0.00 70 1013.9
20260507023143 61 18 2.0 7.0 0.00 0.00 0.00 69 1013.9
20260507022642 61 153 1.0 2.0 0.00 0.00 0.00 69 1013.9
20260507021639 62 189 2.0 2.0 0.00 0.00 0.00 69 1013.5
20260507021138 62 261 1.0 4.0 0.00 0.00 0.00 68 1013.9
20260507020637 62 36 2.0 2.0 0.00 0.00 0.00 68 1013.5
20260507020136 62 243 3.0 4.0 0.00 0.00 0.00 67 1013.9
20260507015635 63 54 2.0 2.0 0.00 0.00 0.00 67 1013.9
20260507015133 63 243 2.0 2.0 0.00 0.00 0.00 66 1013.9
20260507014632 63 243 2.0 4.0 0.00 0.00 0.00 66 1013.9
20260507014131 63 81 2.0 2.0 0.00 0.00 0.00 66 1013.9
20260507013630 63 306 2.0 4.0 0.00 0.00 0.00 66 1013.9
20260507013128 64 342 3.0 2.0 0.00 0.00 0.00 66 1013.5
20260507012627 64 297 2.0 3.0 0.00 0.00 0.00 66 1013.9
20260507012126 64 279 2.0 2.0 0.00 0.00 0.00 66 1013.9
20260507011123 65 117 2.0 2.0 0.00 0.00 0.00 65 1013.9
20260507010622 65 144 2.0 3.0 0.00 0.00 0.00 65 1013.9
20260507010121 65 0 3.0 3.0 0.00 0.00 0.00 64 1013.9
20260507005620 66 45 2.0 2.0 0.00 0.00 0.00 64 1013.9
20260507005118 66 135 2.0 3.0 0.00 0.00 0.00 64 1013.9
20260507004617 66 171 3.0 4.0 0.00 0.00 0.00 63 1013.5
20260507004116 67 342 2.0 2.0 0.00 0.00 0.00 64 1013.5
20260507003615 67 279 2.0 5.0 0.00 0.00 0.00 64 1013.5
20260507003113 68 90 1.0 2.0 0.00 0.00 0.00 64 1013.5
20260507002612 68 351 1.0 1.0 0.00 0.00 0.00 64 1013.5
20260507002111 68 315 3.0 4.0 0.00 0.00 0.00 63 1013.5
20260507001610 68 306 1.0 2.0 0.00 0.00 0.00 63 1013.5
20260507001109 69 297 2.0 2.0 0.00 0.00 0.00 62 1013.5
20260507000607 69 252 2.0 4.0 0.00 0.00 0.00 62 1013.5
20260507000106 70 270 1.0 1.0 0.00 0.00 0.00 61 1013.5
20260506235605 70 234 1.0 2.0 0.00 0.00 0.00 59 1013.5
20260506235104 69 0 1.0 1.0 0.00 0.00 0.00 61 1013.5
20260506234602 70 54 1.0 2.0 0.00 0.00 0.00 59 1013.5
20260506234101 69 207 1.0 1.0 0.00 0.00 0.00 59 1013.5
20260506233600 70 45 2.0 2.0 0.00 0.00 0.00 58 1013.5
20260506233059 70 270 0.0 2.0 0.00 0.00 0.00 56 1013.5
20260506232558 70 342 1.0 3.0 0.00 0.00 0.00 57 1013.5
20260506232056 70 90 0.0 2.0 0.00 0.00 0.00 59 1013.5
20260506231555 69 180 1.0 2.0 0.00 0.00 0.00 58 1013.5
20260506231054 68 189 2.0 1.0 0.00 0.00 0.00 60 1013.5
20260506230553 69 306 1.0 2.0 0.00 0.00 0.00 60 1013.9
20260506230052 69 288 1.0 2.0 0.00 0.00 0.00 60 1013.9
20260506225550 68 90 1.0 1.0 0.00 0.00 0.00 59 1013.9
20260506225049 69 72 1.0 4.0 0.00 0.00 0.00 59 1013.5
20260506224548 68 306 2.0 2.0 0.00 0.00 0.00 60 1013.9
20260506224047 68 63 1.0 3.0 0.00 0.00 0.00 60 1013.9
20260506223546 69 36 0.0 1.0 0.00 0.00 0.00 60 1014.2
20260506223044 68 243 1.0 2.0 0.00 0.00 0.00 60 1014.2
20260506222543 69 180 0.0 1.0 0.00 0.00 0.00 60 1014.2
20260506222042 68 153 1.0 2.0 0.00 0.00 0.00 61 1013.9
20260506221541 67 36 2.0 1.0 0.00 0.00 0.00 62 1014.2
20260506221039 67 351 1.0 2.0 0.00 0.00 0.00 62 1014.2
20260506220538 67 261 4.0 7.0 0.00 0.00 0.00 61 1014.2
20260506220037 67 333 1.0 2.0 0.00 0.00 0.00 63 1014.2
20260506215536 68 243 2.0 4.0 0.00 0.00 0.00 62 1014.2
20260506215034 68 351 0.0 1.0 0.00 0.00 0.00 62 1014.2
20260506214533 67 180 1.0 2.0 0.00 0.00 0.00 64 1013.9
20260506214032 66 180 2.0 2.0 0.00 0.00 0.00 64 1014.2
20260506213531 67 261 2.0 1.0 0.00 0.00 0.00 62 1014.2
20260506213030 66 54 1.0 3.0 0.00 0.00 0.00 65 1014.2
20260506212528 66 243 1.0 3.0 0.00 0.00 0.00 65 1014.2
20260506212027 65 36 1.0 2.0 0.00 0.00 0.00 65 1014.6
20260506211526 66 225 1.0 2.0 0.00 0.00 0.00 64 1014.6
20260506211025 66 333 0.0 1.0 0.00 0.00 0.00 64 1014.6
20260506210523 66 315 0.0 1.0 0.00 0.00 0.00 65 1014.6
20260506210022 65 153 1.0 1.0 0.00 0.00 0.00 67 1014.6
20260506205521 66 126 2.0 2.0 0.00 0.00 0.00 65 1014.9
20260506205019 65 180 1.0 2.0 0.00 0.00 0.00 66 1014.6
20260506204518 65 144 2.0 4.0 0.00 0.00 0.00 65 1014.6
20260506204017 66 135 1.0 3.0 0.00 0.00 0.00 65 1014.6
20260506203516 66 162 1.0 2.0 0.00 0.00 0.00 66 1014.6
20260506203014 66 45 0.0 1.0 0.00 0.00 0.00 65 1014.6
20260506202513 65 306 3.0 4.0 0.00 0.00 0.00 66 1014.6
20260506202012 66 288 1.0 3.0 0.00 0.00 0.00 65 1014.6
20260506201511 65 324 1.0 2.0 0.00 0.00 0.00 66 1014.6
20260506201010 65 63 2.0 2.0 0.00 0.00 0.00 66 1014.6
20260506200508 66 171 2.0 2.0 0.00 0.00 0.00 66 1014.6
20260506200007 65 81 1.0 2.0 0.00 0.00 0.00 68 1014.6
20260506195506 64 225 1.0 2.0 0.00 0.00 0.00 68 1014.9
20260506195005 64 306 1.0 4.0 0.00 0.00 0.00 68 1014.9
20260506194002 64 45 2.0 3.0 0.00 0.00 0.00 68 1014.9
20260506193501 64 279 1.0 2.0 0.00 0.00 0.00 68 1015.2
20260506192459 63 288 3.0 3.0 0.00 0.00 0.00 71 1014.9
20260506191957 63 144 2.0 2.0 0.00 0.00 0.00 71 1015.2
20260506191456 62 270 3.0 2.0 0.00 0.00 0.00 72 1014.9
20260506190955 62 153 3.0 7.0 0.00 0.00 0.00 70 1014.9
20260506190454 63 108 2.0 2.0 0.00 0.00 0.00 70 1014.9
20260506185952 63 189 2.0 2.0 0.00 0.00 0.00 70 1014.9
20260506185451 63 126 1.0 4.0 0.00 0.00 0.00 69 1014.6
20260506184950 63 288 2.0 1.0 0.00 0.00 0.00 70 1014.9
20260506184449 62 288 3.0 3.0 0.00 0.00 0.00 71 1014.9
20260506183948 62 0 3.0 3.0 0.00 0.00 0.00 73 1014.6
20260506183447 61 162 1.0 2.0 0.00 0.00 0.00 73 1014.9
20260506182945 61 288 2.0 3.0 0.00 0.00 0.00 74 1014.9
20260506182444 61 351 0.0 2.0 0.00 0.00 0.00 74 1014.9
20260506181943 61 144 1.0 2.0 0.00 0.00 0.00 73 1015.2
20260506181442 61 54 0.0 1.0 0.00 0.00 0.00 75 1014.9
20260506180940 60 198 1.0 0.0 0.00 0.00 0.00 75 1014.9
20260506180439 60 117 2.0 4.0 0.00 0.00 0.00 75 1014.9
20260506175938 60 252 1.0 1.0 0.00 0.00 0.00 76 1014.9
20260506175437 60 252 0.0 2.0 0.00 0.00 0.00 76 1015.2
20260506174936 59 117 0.0 1.0 0.00 0.00 0.00 76 1014.9
20260506174434 59 342 2.0 2.0 0.00 0.00 0.00 77 1014.9
20260506173933 60 9 0.0 1.0 0.00 0.00 0.00 76 1014.9
20260506173432 59 189 0.0 0.0 0.00 0.00 0.00 76 1014.9
20260506172931 59 117 0.0 1.0 0.00 0.00 0.00 75 1014.6
20260506172430 59 108 0.0 0.0 0.00 0.00 0.00 75 1014.6
20260506171928 59 72 0.0 0.0 0.00 0.00 0.00 75 1014.6
20260506171427 59 117 0.0 2.0 0.00 0.00 0.00 76 1014.6
20260506170926 59 81 0.0 1.0 0.00 0.00 0.00 76 1014.6
20260506170425 58 351 0.0 0.0 0.00 0.00 0.00 77 1014.9
20260506165924 58 126 0.0 2.0 0.00 0.00 0.00 77 1014.6
20260506165422 58 54 1.0 2.0 0.00 0.00 0.00 77 1014.9
20260506164921 59 18 1.0 2.0 0.00 0.00 0.00 77 1014.6
20260506164420 59 135 0.0 0.0 0.00 0.00 0.00 76 1014.6
20260506163919 59 135 0.0 1.0 0.00 0.00 0.00 77 1014.6
20260506163417 59 324 1.0 2.0 0.00 0.00 0.00 77 1014.9
20260506162916 58 63 0.0 2.0 0.00 0.00 0.00 76 1014.6
20260506162415 58 243 1.0 2.0 0.00 0.00 0.00 76 1014.6
20260506161914 58 153 1.0 2.0 0.00 0.00 0.00 77 1014.6
20260506161412 58 18 0.0 2.0 0.00 0.00 0.00 76 1014.6
20260506160911 58 180 0.0 0.0 0.00 0.00 0.00 77 1014.6
20260506160410 58 180 1.0 2.0 0.00 0.00 0.00 78 1014.2
20260506155909 58 297 1.0 3.0 0.00 0.00 0.00 77 1014.2
20260506155408 58 297 1.0 2.0 0.00 0.00 0.00 79 1014.6
20260506154907 57 216 3.0 4.0 0.00 0.00 0.00 78 1013.9
20260506153904 57 99 2.0 4.0 0.00 0.00 0.00 79 1013.9
20260506153403 57 9 1.0 3.0 0.00 0.00 0.00 79 1014.6
20260506152902 57 189 0.0 1.0 0.00 0.00 0.00 80 1014.6
20260506152401 57 216 0.0 1.0 0.00 0.00 0.00 79 1014.9
20260506151859 57 36 0.0 2.0 0.00 0.00 0.00 80 1014.6
20260506151358 57 270 0.0 2.0 0.00 0.00 0.00 80 1014.9
20260506150356 57 54 1.0 2.0 0.00 0.00 0.00 79 1014.6
20260506145855 57 144 0.0 2.0 0.00 0.00 0.00 80 1014.6
20260506145353 57 36 1.0 1.0 0.00 0.00 0.00 81 1014.6
20260506144852 57 342 0.0 1.0 0.00 0.00 0.00 80 1014.2
20260506144351 57 63 0.0 2.0 0.00 0.00 0.00 80 1014.6
20260506143850 57 0 0.0 1.0 0.00 0.00 0.00 80 1014.6
20260506143348 57 261 0.0 0.0 0.00 0.00 0.00 79 1014.6
20260506142847 57 144 0.0 0.0 0.00 0.00 0.00 80 1013.9
20260506142346 57 81 0.0 1.0 0.00 0.00 0.00 79 1013.9
20260506141845 58 18 0.0 1.0 0.00 0.00 0.00 79 1013.9
20260506141343 57 81 0.0 0.0 0.00 0.00 0.00 81 1013.5
20260506140842 57 18 0.0 0.0 0.00 0.00 0.00 80 1013.9
20260506140341 57 144 0.0 2.0 0.00 0.00 0.00 80 1013.5
20260506135840 57 99 0.0 1.0 0.00 0.00 0.00 80 1013.9
20260506135338 57 243 0.0 0.0 0.00 0.00 0.00 81 1013.9
20260506134837 57 171 0.0 0.0 0.00 0.00 0.00 80 1013.5
20260506134336 57 171 0.0 0.0 0.00 0.00 0.00 81 1013.5
20260506133835 57 324 0.0 0.0 0.00 0.00 0.00 81 1013.5
20260506133334 56 135 0.0 0.0 0.00 0.00 0.00 81 1013.5
20260506132832 56 135 0.0 0.0 0.00 0.00 0.00 81 1013.5
20260506132331 56 324 0.0 0.0 0.00 0.00 0.00 81 1013.5
20260506131830 56 189 0.0 0.0 0.00 0.00 0.00 81 1013.5
20260506131328 56 126 0.0 0.0 0.00 0.00 0.00 81 1013.2
20260506130827 56 288 0.0 0.0 0.00 0.00 0.00 81 1013.5
20260506130326 57 72 0.0 1.0 0.00 0.00 0.00 80 1013.5
20260506125825 57 18 0.0 0.0 0.00 0.00 0.00 81 1013.5
20260506125324 56 198 0.0 0.0 0.00 0.00 0.00 82 1013.5
20260506124822 56 153 0.0 1.0 0.00 0.00 0.00 81 1013.2
20260506124321 56 162 0.0 0.0 0.00 0.00 0.00 81 1013.2
20260506123820 56 45 0.0 0.0 0.00 0.00 0.00 81 1013.2
20260506123319 56 9 0.0 0.0 0.00 0.00 0.00 81 1013.2
20260506122817 56 261 0.0 2.0 0.00 0.00 0.00 81 1013.2
20260506122316 56 252 0.0 1.0 0.00 0.00 0.00 81 1013.2
20260506121815 56 243 1.0 1.0 0.00 0.00 0.00 81 1013.2
20260506121314 56 297 0.0 1.0 0.00 0.00 0.00 81 1013.2
20260506120812 56 324 1.0 1.0 0.00 0.00 0.00 80 1013.2
20260506120311 56 81 1.0 2.0 0.00 0.00 0.00 80 1013.2
20260506115810 57 117 0.0 2.0 0.00 0.00 0.00 80 1013.2
20260506115309 56 324 0.0 1.0 0.00 0.00 0.00 80 1012.9
20260506114808 57 144 1.0 1.0 0.00 0.00 0.00 80 1013.2
20260506114306 57 36 0.0 1.0 0.00 0.00 0.00 80 1012.9
20260506113805 57 207 1.0 2.0 0.00 0.00 0.00 79 1012.9
20260506113304 57 81 1.0 1.0 0.00 0.00 0.00 79 1012.9
20260506112802 57 324 0.0 2.0 0.00 0.00 0.00 79 1012.9
20260506112301 57 261 0.0 1.0 0.00 0.00 0.00 79 1012.9
20260506111800 57 90 0.0 1.0 0.00 0.00 0.00 78 1012.9
20260506111259 57 72 0.0 0.0 0.00 0.00 0.00 78 1012.9
20260506110758 57 135 1.0 2.0 0.00 0.00 0.00 78 1012.5
20260506110256 57 315 1.0 2.0 0.00 0.00 0.00 78 1012.5
20260506105755 57 135 0.0 1.0 0.00 0.00 0.00 78 1012.5
20260506105254 57 198 1.0 1.0 0.00 0.00 0.00 78 1012.2
20260506104753 57 9 0.0 0.0 0.00 0.00 0.00 79 1012.2
20260506104252 57 81 0.0 2.0 0.00 0.00 0.00 78 1012.2
20260506103750 57 36 0.0 1.0 0.00 0.00 0.00 79 1012.2
20260506103249 57 261 0.0 0.0 0.00 0.00 0.00 78 1012.2
20260506102748 57 234 0.0 1.0 0.00 0.00 0.00 78 1012.2
20260506102247 57 315 0.0 0.0 0.00 0.00 0.00 79 1011.9
20260506101745 57 315 0.0 2.0 0.00 0.00 0.00 78 1011.9
20260506101244 57 9 0.0 2.0 0.00 0.00 0.00 78 1011.9
20260506100743 57 189 0.0 1.0 0.00 0.00 0.00 78 1011.9
20260506100242 57 252 0.0 1.0 0.00 0.00 0.00 78 1011.9
20260506095740 57 72 0.0 0.0 0.00 0.00 0.00 78 1011.9
20260506095239 57 315 1.0 3.0 0.00 0.00 0.00 77 1011.9
20260506094738 58 225 0.0 2.0 0.00 0.00 0.00 77 1011.9
20260506094237 58 324 1.0 2.0 0.00 0.00 0.00 77 1011.9
20260506093735 58 324 0.0 2.0 0.00 0.00 0.00 77 1011.5
20260506093234 58 108 1.0 1.0 0.00 0.00 0.00 77 1011.9
20260506092733 58 207 0.0 1.0 0.00 0.00 0.00 78 1011.9
20260506092232 58 261 0.0 2.0 0.00 0.00 0.00 77 1011.9
20260506091731 58 225 2.0 4.0 0.00 0.00 0.00 77 1011.9
20260506091229 58 0 1.0 1.0 0.00 0.00 0.00 77 1011.5
20260506090728 58 315 1.0 1.0 0.00 0.00 0.00 78 1011.5
20260506090227 58 81 1.0 1.0 0.00 0.00 0.00 77 1011.5
20260506085726 59 144 0.0 0.0 0.00 0.00 0.00 77 1011.5